Location: *
(51.4660°N, 0.3360°W)
Time: 14:43:18
(UTC+00:00)

KORONAS-FOTON - Pass Details

Date: 19 September 2019
Orbit: 505 x 533 km, 82.4° (Epoch: 14 October)

Event Time Altitude Azimuth Distance (km) Brightness Sun altitude
Rises 19:56:17 0° 352° (N) 2,631 7.9 -17.2°
Reaches altitude 10° 19:58:28 10° 357° (N) 1,737 6.8 -17.5°
Maximum altitude 20:02:12 55° 76° (ENE) 617 3.8 -18.0°
Enters shadow 20:02:50 47° 116° (ESE) 677 3.9 -18.1°
